Flag for U.S.A. Weather past 2 weeks in Charlottesville, Virginia, U.S.A.

Now
75 °F

Mostly cloudy.


Feels Like: 75 °F
Forecast: 65 / 86 °F
Wind: 6 mph from South

Location: Charlottesville-Albemarle Airport

Current Time: Aug 20, 2014 at 9:48:15 AM

Latest Report: Aug 20, 2014 at 8:53 AM


Visibility: 4 mi

Pressure: 29.96 "Hg

Humidity: 85%

Dew point: 70 °F

Location of CharlottesvilleLocation

Historic Weather in Charlottesville — Graph

°F

Charlottesville temperature yesterday

Maximum temperature yesterday: 82 °F (at 3:53 PM)
Minimum temperature yesterday: 70 °F (at 2:53 AM)
Average temperature yesterday: 75 °F

Past Weeks' High & Low Weather Summary

 TemperatureHumidityPressure
High88 °F (Aug 5, 2:53 PM)97% (Aug 7, 3:53 AM)30.16 "Hg (Aug 7, 3:53 AM)
Low53 °F (Aug 15, 6:53 AM)35% (Aug 5, 1:53 PM)29.75 "Hg (Aug 12, 6:53 PM)
Average72 °F74%29.97 "Hg
* Reported Aug 5 8:53 AM — Aug 20 8:53 AM, Charlottesville, Weather by CustomWeather, © 2014

Note: Actual official high and low records may vary slightly from our data, if they occured in-between our weather recording intervals... More about our weather records

Advertising

Charlottesville weather history for previous 24 hours

 ConditionsComfort  
Time TempWeatherWind HumidityBarometerVisibility
8:53 AM
Aug 20
75 °FMostly cloudy.6 mph85%29.96 "Hg4 mi
7:53 AM72 °FMostly cloudy.3 mph93%29.95 "Hg7 mi
6:53 AM72 °FFog.5 mph93%29.94 "Hg5 mi
5:53 AM71 °FPartly cloudy.6 mph93%29.92 "Hg7 mi
5:02 AM72 °FMostly cloudy.5 mph93%29.93 "Hg9 mi
4:53 AM72 °FMostly cloudy.6 mph93%29.90 "Hg9 mi
3:53 AM71 °FFog.No wind96%29.90 "Hg6 mi
2:53 AM72 °FFog.No wind93%29.90 "Hg6 mi
2:03 AM70 °FFog.No wind97%29.93 "Hg6 mi
12:53 AM72 °FPassing clouds.No wind93%29.92 "Hg9 mi
11:53 PM
Aug 19
72 °FMostly cloudy.No wind93%29.91 "Hg10 mi
10:53 PM72 °FPassing clouds.No wind91%29.91 "Hg10 mi
9:53 PM74 °FPartly cloudy.No wind88%29.90 "Hg10 mi
8:53 PM75 °FBroken clouds.5 mph85%29.88 "Hg10 mi
7:53 PM78 °FMostly cloudy.7 mph74%29.86 "Hg10 mi
6:53 PM79 °FPassing clouds.3 mph69%29.83 "Hg10 mi
5:53 PM82 °FSunny.8 mph60%29.84 "Hg10 mi
4:53 PM81 °FScattered clouds.5 mph62%29.83 "Hg10 mi
3:53 PM82 °FPassing clouds.5 mph63%29.83 "Hg10 mi
2:53 PM80 °FBroken clouds.5 mph71%29.85 "Hg6 mi
1:53 PM79 °FMostly cloudy.6 mph72%29.86 "Hg4 mi
12:53 PM78 °FMostly cloudy.7 mph74%29.86 "Hg4 mi
11:53 AM77 °FMostly cloudy.5 mph77%29.87 "Hg8 mi
10:53 AM75 °FOvercast.7 mph82%29.86 "Hg5 mi
9:53 AM73 °FFog.5 mph88%29.86 "Hg4 mi
Weather by CustomWeather, © 2014

See weather overviewHow to use our weather pages